Rechercher aéroport 
image banner adimage banner ad
image banner ad

DAOO - Oran/Ahmed Benbella

Situé à Oran, Algeria

ICAO - DAOO, IATA - ORN

Données fournies par Airmate  

Information générale

Coordonnées: N35°37'38" W0°36'41"
Élévation : 298 feet MSL.
 
Évalué:
Voir évaluations:
[VIEW]
Voir autres Aéroports à Oran Province

Données opérationnelles

Accessible au public
Heure actuelle UTC:
Heure actuelle locale:
Météo
METAR: DAOO 301800Z 02006KT CAVOK 21/12 Q1022
TAF: TAF DAOO 301100Z 3012/3112 02008KT CAVOK BECMG 3013/3015 04012KT BECMG 3019/3021 VRB02KT
Voir NOTAMs / SUP AIP / TFR affectant cet aéroport [VIEW]
Fréquences de communication: [VIEW]

Pistes:

Identifiant RWYQFULongueur (ft)Largeur (ft)SurfaceLDA (ft)
07R67°9843148
25L247°9843148
07L67°11811148
25R247°11811148

Coordonnées de l'aéroport

Adresse: Oran Algeria

Vue satellite de DAOO